Calgary / Springba, Alberta

11:35 AM MST on December 07, 2016 (GMT -0700)
Springbank

Weather History for CYBW - December, 2012

Change the Weather History Date:

Thursday, December 27, 2012

  Actual Average Record
Temperature  
Mean Temperature -4 °F -  
Max Temperature 9 °F 22 °F 60 °F (1999)
Min Temperature -18 °F 3 °F -18 °F (1996)
Degree Days  
Heating Degree Days 70    
Moisture  
Dew Point -4 °F    
Average Humidity 81    
Maximum Humidity 85    
Minimum Humidity 68    
Precipitation  
Precipitation 0.00 in - - ()
Sea Level Pressure  
Sea Level Pressure 30.10 in    
Wind  
Wind Speed 3 mph ()    
Max Wind Speed 7 mph    
Max Gust Speed -    
Visibility 15.0 miles    
Events Fog    
Averages and records for this station are not official NWS values.
T = Trace of Precipitation, MM = Missing Value Source: Averaged Metar Reports

Daily Weather History Graph

Daily Weather History Graph

Search for Another Location

Airport or City:

Trip Planner

Search our weather history database for the weather conditions in past years. The results will help you decide how hot, cold, wet, or windy it might be!

Date:

Astronomy

Dec. 27, 2012 Rise Set
Actual Time 8:41 AM MST 4:36 PM MST
Civil Twilight 8:01 AM MST 5:16 PM MST
Nautical Twilight 7:18 AM MST 5:59 PM MST
Astronomical Twilight 6:38 AM MST 6:39 PM MST
Moon 4:28 PM MST (12/27) 7:51 AM MST (12/27)
Length of Visible Light 9h 15m
Length of Day
7h 55m
Full, 100% of the Moon is Illuminated
Dec 27
Full
Dec 28
Full
Jan 4
Last Quarter
Jan 11
New
Jan 18
First Quarter

Hourly Weather History & Observations

Time (MST) Temp. Windchill Dew Point Humidity Pressure Visibility Wind Dir Wind Speed Gust Speed Precip Events Conditions
5:00 AM -10 °F - -15 °F 68% 30.10 in 15 mi NNW 3.5 mph - -   Scattered Clouds
5:00 AM -9.4 °F -20.9 °F -14.8 °F 77% 30.10 in 15.0 mi NNW 4.6 mph - N/A   Partly Cloudy
6:00 AM -11.2 °F -26.4 °F -16.6 °F 77% 30.10 in 15.0 mi NW 6.9 mph - N/A   Partly Cloudy
7:00 AM -5.8 °F -18.4 °F -9.4 °F 84% 30.09 in 15.0 mi NW 5.8 mph - N/A   Partly Cloudy
8:00 AM -4.0 °F -16.3 °F -7.6 °F 85% 30.10 in 15.0 mi West 5.8 mph - N/A   Partly Cloudy
9:00 AM -2.2 °F -12.5 °F -7.6 °F 78% 30.11 in 30.0 mi NNW 4.6 mph - N/A   Partly Cloudy
10:00 AM -2.2 °F -10.4 °F -7.6 °F 78% 30.13 in 30.0 mi NW 3.5 mph - N/A   Scattered Clouds
11:00 AM 5 °F - 2 °F 79% 30.12 in 28 mi West 3.5 mph - -   Mostly Cloudy
11:00 AM 5.0 °F -2.1 °F 1.4 °F 85% 30.12 in 30.0 mi WNW 3.5 mph - N/A   Mostly Cloudy
12:00 PM 8.6 °F - 5.0 °F 85% 30.10 in 30.0 mi Calm Calm - N/A   Partly Cloudy
1:00 PM 8.6 °F - 5.0 °F 85% 30.09 in 30.0 mi SW 2.3 mph - N/A   Partly Cloudy
2:00 PM 8.6 °F 2.0 °F 5.0 °F 85% 30.08 in 30.0 mi South 3.5 mph - N/A   Partly Cloudy
3:00 PM 8.6 °F 2.0 °F 5.0 °F 85% 30.08 in 30.0 mi South 3.5 mph - N/A   Partly Cloudy
4:00 PM 8.6 °F - 5.0 °F 85% 30.10 in 30.0 mi Calm Calm - N/A   Clear
5:00 PM 4 °F - 0 °F 77% 30.12 in 28 mi Calm Calm - -   Scattered Clouds
5:00 PM 3.2 °F - -0.4 °F 85% 30.12 in 30.0 mi Calm Calm - N/A   Partly Cloudy
5:47 PM 1.4 °F - -2.2 °F 85% 30.14 in 15.0 mi NW 2.3 mph - N/A Fog Patches of Fog
6:00 PM -0.4 °F -10.4 °F -4.0 °F 85% 30.15 in 15.0 mi WNW 4.6 mph - N/A Fog Ice Crystals
7:00 PM 3.2 °F - -0.4 °F 85% 30.12 in 15.0 mi West 2.3 mph - N/A   Clear
8:00 PM -4.0 °F -12.4 °F -9.4 °F 78% 30.14 in 15.0 mi NW 3.5 mph - N/A   Clear
9:00 PM -4.0 °F -14.6 °F -9.4 °F 78% 30.13 in 15.0 mi NW 4.6 mph - N/A   Clear
10:00 PM -5.8 °F -19.9 °F -11.2 °F 77% 29.80 in 15.0 mi NNW 6.9 mph - N/A   Clear